QIANFAN-45 (62246 NORAD) Tracking and Keplerian Element Data

This shows tracking and keplerian element data for the satellite.

Feedback or suggestion? Click here.




ElementValue
Catalog62246
NameQIANFAN-45
Epoch Orbit5701
Epoch Day35.18467863
Epoch Year2025
RAAN73.1322
Inclination88.9886
Eccentricity0.001609
Argument of Perigee30.5669
Mean Anonmoly329.6456
Mean Motion14.20879224
Decay Rate4.69E-06
L11 62246U 24232K 25035.18467863 .00000469 00000+0 20991-3 0 9993
L22 62246 88.9886 73.1322 0016090 30.5669 329.6456 14.20879224 57019



Live tracking and technical data element details for QIANFAN-45 (NORAD 62246). QIANFAN-45 can be tracked NOW for your location showing map with azimuth and elevation plus other details from your city location.







IsCatalogInMostPopularTable: catalog: 62246, numindb: 8
Update: records affected: 1



GetName: 62246 QIANFAN-45

Hit Count: updated at: Sat, 24 May 2025 15:49:45 GMT